DW9783 Weather Reports


time (UTC)temp
C
wind
direction
speed
KPH
gust
KPH
rain 1hr
cm
rain 24hr
cm
rain mn
cm
humidity
%
barometer
mb
20260503072003 16 76 1.6 6.4 0.00 0.00 0.00 65 1018.7
20260503071107 16 130 1.6 3.2 0.00 0.00 0.00 68 1018.7
20260503055107 9 128 0.0 1.6 0.00 0.00 0.00 90 1018.3
20260503054106 8 128 0.0 1.6 0.00 0.00 0.00 90 1018.3
20260503053003 8 128 0.0 1.6 0.00 0.00 0.00 91 1018.3
20260503052004 7 128 0.0 1.6 0.00 0.00 0.00 92 1018.1
20260503051107 7 128 0.0 0.0 0.00 0.00 0.00 92 1018.2
20260503050106 7 0 0.0 0.0 0.00 0.00 0.00 91 1018.1
20260503045003 6 128 0.0 0.0 0.00 0.00 0.00 91 1018.1
20260503044003 6 128 0.0 0.0 0.00 0.00 0.00 90 1018.1
20260503043003 6 0 0.0 0.0 0.00 0.00 0.00 90 1018.0
20260503042107 6 128 0.0 0.0 0.00 0.00 0.00 90 1018.1
20260503041004 6 0 0.0 0.0 0.00 0.00 0.00 89 1018.1
20260503040107 6 128 0.0 0.0 0.00 0.00 0.00 89 1018.0
20260503035106 6 128 0.0 0.0 0.00 0.00 0.00 89 1018.0
20260503034003 6 128 0.0 1.6 0.00 0.00 0.00 89 1017.9
20260503033106 6 128 0.0 1.6 0.00 0.00 0.00 90 1017.9
20260503032107 6 128 0.0 1.6 0.00 0.00 0.00 90 1018.0
20260503031107 6 128 0.0 0.0 0.00 0.00 0.00 90 1018.0
20260503030106 6 128 0.0 0.0 0.00 0.00 0.00 89 1018.0
20260503025003 6 128 0.0 0.0 0.00 0.00 0.00 89 1018.1
20260503024003 6 0 0.0 0.0 0.00 0.00 0.00 89 1018.1
20260503023003 6 0 0.0 0.0 0.00 0.00 0.00 88 1018.2
20260503022004 6 128 0.0 0.0 0.00 0.00 0.00 88 1018.3
20260503021003 6 128 0.0 0.0 0.00 0.00 0.00 88 1018.3
20260503020003 7 128 0.0 0.0 0.00 0.00 0.00 87 1018.5
20260503015003 7 128 0.0 0.0 0.00 0.00 0.00 87 1018.5
20260503014106 7 128 0.0 0.0 0.00 0.00 0.00 87 1018.5
20260503013004 7 128 0.0 0.0 0.00 0.00 0.00 87 1018.6
20260503012107 7 128 0.0 0.0 0.00 0.00 0.00 87 1018.5
20260503011106 7 128 0.0 0.0 0.00 0.00 0.00 86 1018.6
20260503010106 7 128 0.0 0.0 0.00 0.00 0.00 86 1018.7
20260503005003 7 128 0.0 0.0 0.00 0.00 0.00 85 1018.7
20260503004004 7 128 0.0 0.0 0.00 0.00 0.00 85 1018.8
20260503003004 7 128 0.0 0.0 0.00 0.00 0.00 84 1018.9
20260503002106 7 128 0.0 0.0 0.00 0.00 0.00 84 1018.9
20260503001003 8 128 0.0 0.0 0.00 0.00 0.00 84 1018.9
20260503000003 8 128 0.0 0.0 0.00 0.00 0.00 83 1019.0
20260502235004 8 128 0.0 0.0 0.00 0.00 0.00 83 1019.0
20260502234003 8 0 0.0 0.0 0.00 0.00 0.00 81 1019.0
20260502233106 8 128 0.0 0.0 0.00 0.00 0.00 81 1019.1
20260502232003 8 128 0.0 0.0 0.00 0.00 0.00 80 1019.2
20260502231003 9 128 0.0 1.6 0.00 0.00 0.00 80 1019.3
20260502230004 8 128 0.0 0.0 0.00 0.00 0.00 81 1019.4
20260502225003 8 0 0.0 0.0 0.00 0.00 0.00 81 1019.5
20260502224003 8 128 0.0 0.0 0.00 0.00 0.00 80 1019.5
20260502223003 8 96 0.0 1.6 0.00 0.00 0.00 81 1019.6
20260502222107 8 97 0.0 3.2 0.00 0.00 0.00 81 1019.5
20260502221004 8 117 0.0 1.6 0.00 0.00 0.00 80 1019.6
20260502220046 8 117 0.0 0.0 0.00 0.00 0.00 80 1019.6
20260502215003 9 117 0.0 0.0 0.00 0.00 0.00 79 1019.5
20260502214106 9 117 0.0 0.0 0.00 0.00 0.00 79 1019.6
20260502213003 9 118 0.0 0.0 0.00 0.00 0.00 78 1019.6
20260502212106 10 117 0.0 0.0 0.00 0.00 0.00 78 1019.6
20260502211004 10 117 0.0 0.0 0.00 0.00 0.00 77 1019.7
20260502210107 10 117 0.0 0.0 0.00 0.00 0.00 76 1019.7
20260502205107 10 117 0.0 0.0 0.00 0.00 0.00 76 1019.8
20260502204003 10 119 0.0 3.2 0.00 0.00 0.00 75 1019.9
20260502203003 10 131 0.0 0.0 0.00 0.00 0.00 75 1020.0
20260502202003 11 131 0.0 0.0 0.00 0.00 0.00 74 1020.0
20260502201107 11 131 0.0 1.6 0.00 0.00 0.00 73 1019.9
20260502200107 11 131 0.0 1.6 0.00 0.00 0.00 73 1019.9
20260502195003 11 131 0.0 0.0 0.00 0.00 0.00 73 1019.8
20260502194003 11 131 0.0 1.6 0.00 0.00 0.00 71 1019.8
20260502193106 12 131 0.0 0.0 0.00 0.00 0.00 70 1019.8
20260502192004 12 131 0.0 1.6 0.00 0.00 0.00 69 1019.6
20260502191004 12 131 0.0 1.6 0.00 0.00 0.00 68 1019.6
20260502190004 13 131 0.0 1.6 0.00 0.00 0.00 67 1019.6
20260502185003 13 131 0.0 0.0 0.00 0.00 0.00 65 1019.6
20260502184106 14 132 0.0 3.2 0.00 0.00 0.00 63 1019.5
20260502182107 16 0 0.0 0.0 0.00 0.00 0.00 59 1019.3
20260502181004 17 134 0.0 1.6 0.00 0.00 0.00 57 1019.2
20260502180106 18 134 0.0 1.6 0.00 0.00 0.00 54 1019.2
20260502164004 22 134 1.6 3.2 0.00 0.00 0.00 34 1019.3
20260502163003 22 89 3.2 3.2 0.00 0.00 0.00 36 1019.4
20260502162003 22 165 4.8 8.0 0.00 0.00 0.00 36 1019.4
20260502161107 22 172 6.4 11.3 0.00 0.00 0.00 35 1019.5
20260502151107 22 165 6.4 12.9 0.00 0.00 0.00 35 1020.1
20260502150107 22 167 4.8 11.3 0.00 0.00 0.00 35 1020.2
20260502123107 22 171 6.4 19.3 0.00 0.00 0.00 40 1021.5
20260502122107 22 186 6.4 20.9 0.00 0.00 0.00 40 1021.7
20260502121003 21 167 4.8 20.9 0.00 0.00 0.00 40 1021.8
20260502120106 21 161 3.2 9.7 0.00 0.00 0.00 43 1021.8
20260502115004 21 168 6.4 14.5 0.00 0.00 0.00 40 1022.0
20260502114107 21 166 4.8 11.3 0.00 0.00 0.00 43 1022.1
20260502113004 21 200 4.8 12.9 0.00 0.00 0.00 41 1022.2
20260502112003 21 175 8.0 11.3 0.00 0.00 0.00 42 1022.3
20260502111003 21 177 8.0 17.7 0.00 0.00 0.00 42 1022.3
20260502110004 21 157 6.4 22.5 0.00 0.00 0.00 43 1022.5
20260502105107 20 167 8.0 22.5 0.00 0.00 0.00 42 1022.7
20260502104106 20 170 6.4 14.5 0.00 0.00 0.00 46 1022.8
20260502103004 20 174 4.8 12.9 0.00 0.00 0.00 44 1023.0
20260502102107 20 176 6.4 12.9 0.00 0.00 0.00 43 1023.1
20260502101003 20 186 4.8 12.9 0.00 0.00 0.00 46 1023.2
20260502100106 20 160 6.4 17.7 0.00 0.00 0.00 44 1023.4
20260502091004 19 168 4.8 16.1 0.00 0.00 0.00 46 1023.7